Lid_Strength_Index
11 14 17 14 13 13 14 15 16 15 14 15 15 14 13 12 12 12 12 11 11 11 10 7 5 3 3 3 3 4 5 7 7 8 8 8 8 8 7 7 6 6 6 5
13 17 13 12 12 13 14 15 16 14 13 14 15 15 13 13 13 12 12 12 11 11 11 8 6 4 4 4 3 4 5 6 7 8 7 7 7 7 7 7 6 6 6 6
14 12 12 13 13 14 14 15 16 16 14 14 15 17 15 13 12 12 12 11 11 10 11 11 11 10 8 4 4 4 5 6 7 7 8 8 8 8 8 8 7 6 6 6
12 10 12 13 14 14 17 13 13 14 16 19 16 22 16 14 14 13 12 12 11 11 10 10 11 10 9 5 4 4 6 6 7 8 8 9 9 9 8 8 7 7 6 6
13 12 12 13 13 13 15 14 14 15 17 17 18 20 17 15 15 13 12 12 11 11 11 11 9 8 7 5 5 5 6 7 7 8 8 8 9 8 8 8 8 7 7 6
11 10 11 11 11 12 12 14 14 15 17 22 18 19 19 16 14 13 13 12 11 11 11 10 8 7 6 5 5 6 7 7 8 7 7 8 9 9 9 8 8 8 7 7
12 13 11 10 13 11 12 15 19 20 22 22 17 19 18 15 13 13 13 11 10 10 9 9 9 7 6 5 5 6 6 7 7 8 8 9 9 8 8 8 8 8 7 7
16 18 13 12 12 14 14 13 18 22 21 19 18 20 18 14 14 13 12 11 10 9 9 9 8 7 6 6 6 6 7 7 7 8 8 9 8 8 8 8 8 8 7 7
15 15 11 11 11 11 14 16 12 17 20 19 17 16 14 13 14 14 13 12 10 9 8 8 7 7 6 6 6 7 7 7 7 8 9 9 9 8 8 8 7 8 7 7
12 17 13 11 11 11 13 11 17 17 22 21 19 17 15 15 14 13 13 14 12 9 8 8 7 6 6 6 6 6 6 7 8 8 9 9 9 8 8 8 8 8 8 8
10 13 15 12 14 14 14 15 14 14 15 19 21 17 11 10 11 13 13 13 12 10 9 8 7 6 6 6 6 7 7 8 9 9 9 9 9 8 8 8 8 8 8 7
9 12 16 14 11 10 11 13 13 16 19 17 17 17 12 11 11 10 12 12 12 10 9 9 7 6 6 6 7 7 7 8 9 9 9 9 9 9 9 8 8 8 8 7
9 14 18 16 13 11 14 12 11 12 14 17 18 18 11 11 11 11 11 11 12 11 9 8 8 7 6 6 7 7 8 8 9 9 9 9 9 9 9 8 8 8 8 7
8 12 14 17 16 13 16 14 12 12 17 16 16 15 13 12 11 11 11 11 11 11 10 9 8 7 7 6 6 7 8 8 9 9 9 10 10 9 9 9 8 8 8 8
10 15 13 13 12 11 13 14 13 14 13 15 14 15 12 11 11 10 10 10 11 12 12 11 10 9 8 7 7 7 8 8 9 9 10 10 9 9 9 9 9 8 8 8
9 15 14 15 12 12 14 12 13 12 13 13 14 15 10 9 9 10 10 10 11 12 12 12 10 10 9 9 7 7 8 9 9 10 10 9 9 9 9 9 9 9 8 8
11 13 15 17 13 14 17 13 13 13 12 12 15 13 10 10 9 9 9 10 11 11 11 11 10 10 10 9 8 8 8 9 9 10 10 10 10 10 10 9 9 9 9 9
12 13 14 17 15 21 13 9 9 11 11 10 11 11 10 9 9 8 8 10 10 10 11 11 10 10 10 10 9 9 9 9 10 10 10 10 10 11 10 10 10 10 9 9
9 12 15 17 18 15 13 11 11 12 13 10 10 10 10 8 9 9 8 8 9 9 10 10 10 9 10 10 10 9 10 10 10 10 10 11 10 11 11 11 11 10 10 9
9 10 14 16 19 20 13 9 7 8 15 8 8 10 10 9 11 10 9 8 8 9 10 11 10 11 11 11 11 11 11 11 11 10 11 11 11 11 11 11 11 11 10 10
13 13 16 16 18 15 10 9 8 16 13 8 7 8 9 9 8 8 7 8 8 9 10 10 11 11 11 12 12 13 13 12 13 13 13 12 11 11 11 11 12 11 11 11
14 15 15 14 16 19 10 9 13 10 7 7 7 6 7 7 7 7 8 9 9 10 10 11 12 13 12 13 13 14 14 14 14 13 13 13 13 12 12 13 13 13 12 12
15 12 14 13 13 9 8 9 8 8 9 9 9 8 6 6 7 7 9 9 9 10 11 12 13 14 15 15 13 14 15 14 14 14 14 14 15 14 14 14 14 13 12 13
11 9 12 12 11 10 8 8 9 8 8 9 8 9 9 8 7 6 9 10 11 11 12 13 14 15 15 16 15 15 15 14 14 15 15 15 15 15 14 14 14 12 12 12
10 10 11 12 10 9 8 8 8 8 8 9 8 9 9 9 8 9 10 11 11 12 13 13 14 14 15 15 15 14 15 14 15 15 15 15 15 14 14 14 14 13 13 13
9 11 12 12 9 9 8 7 7 8 9 9 9 10 10 9 9 11 11 11 12 13 13 14 14 14 15 15 15 14 14 14 15 15 15 15 14 14 14 15 14 13 12 12